This is the latest recevied weather packets stored in our database for station/object 9W2RUT-G. If no packets are shown the sender has not sent any weather packets the latest 10 day(s).
| Time | Temp. | Humidity | Pressure | Rain* | Wind** | Luminosity | Snow |
|---|---|---|---|---|---|---|---|
| 1777930285 | 23.89° C | 29% | 1012.1 hPa | - | - | - | - |
| 1777930244 | 23.89° C | 29% | 1012.1 hPa | - | - | - | - |
| 1777929344 | 23.89° C | 29% | 1012.2 hPa | - | - | - | - |
| 1777928443 | 23.89° C | 31% | 1012.2 hPa | - | - | - | - |
| 1777927543 | 23.89° C | 33% | 1012 hPa | - | - | - | - |
| 1777926643 | 23.89° C | 35% | 1012.1 hPa | - | - | - | - |
| 1777925742 | 24.44° C | 34% | 1012.1 hPa | - | - | - | - |
| 1777924841 | 24.44° C | 33% | 1012.3 hPa | - | - | - | - |
| 1777923941 | 23.89° C | 32% | 1012.4 hPa | - | - | - | - |
| 1777923040 | 23.89° C | 32% | 1012.4 hPa | - | - | - | - |
| 1777922140 | 24.44° C | 32% | 1012.6 hPa | - | - | - | - |
| 1777921239 | 24.44° C | 31% | 1012.8 hPa | - | - | - | - |
| 1777920339 | 24.44° C | 29% | 1012.9 hPa | - | - | - | - |
| 1777919438 | 24.44° C | 29% | 1012.9 hPa | - | - | - | - |
| 1777918538 | 24.44° C | 27% | 1013.1 hPa | - | - | - | - |
| 1777917637 | 24.44° C | 28% | 1013.3 hPa | - | - | - | - |
| 1777916737 | 25° C | 28% | 1013.5 hPa | - | - | - | - |
| 1777915836 | 25° C | 29% | 1013.7 hPa | - | - | - | - |
| 1777914968 | 25° C | 29% | 1013.9 hPa | - | - | - | - |
| 1777914936 | 25° C | 29% | 1013.9 hPa | - | - | - | - |
| 1777914036 | 25° C | 29% | 1014.1 hPa | - | - | - | - |
| 1777913135 | 25.56° C | 30% | 1014.1 hPa | - | - | - | - |
| 1777912235 | 25.56° C | 30% | 1014.1 hPa | - | - | - | - |
| 1777911334 | 26.11° C | 31% | 1014.2 hPa | - | - | - | - |
| 1777910433 | 25° C | 34% | 1014.5 hPa | - | - | - | - |
* Rain since midnight (hover to see other rain measurements)
** Current wind speed in m/s (hover to see current wind gust speed)